COSMOS 2080 (GLONASS)

Satellite information

Favourite Embed

Satellite Type and Status

PAYLOADIN ORBIT

Key statistics

Satellite COSMOS 2080 (GLONASS) at a glance.

Uptime

12993

Days in orbit

Revolutions

≈ 2.1

Per day

Orbit

MEO

Medium Earth Orbit

Inclination

64.8

Latest

Satellite identification and parameters

Extended collection of information and parameters for COSMOS 2080 (GLONASS).

Object identification

Identified? True

Debris? False

Object name: COSMOS 2080 (GLONASS)

International designator: 1990-045B

Object number (NORAD): 20620

Object ID (CCSDS): 20620

Country: COMMONWEALTH OF INDEPENDENT STATES (CIS)

Current information (Y/N): Y

RCS size: LARGE

Orbital parameters

Period: 675.73 minutes

Inclination: 64.8259 deg

SMA: 25507.959 km

Apoapsis: 19191.282 km

Periapsis: 19068.366 km

RAAN: 314.8447 deg

Eccentricy: 0.00240936

Argument of periapsis: 27.7452 deg

Mean anomaly: 122.0909 deg

Mean motion: 2.1310282 rev/day

Mean motion (dot): -0.00000056 rev/day2

B* drag term: 0.0 1/REarth

Two-line elements (TLE)

Creation date: Dec. 12, 2025, 3:16 a.m.

Reference frame: TEME

Reference center: EARTH

Epoch: Dec. 11, 2025, 8:37 p.m. UTC

TLE line 0: 0 COSMOS 2080 (GLONASS)

TLE line 1: 1 20620U 90045B 25345.85944538 -.00000056 00000-0 00000-0 0 9995

TLE line 2: 2 20620 64.8259 314.8447 0024094 27.7452 122.0909 2.13102820276617

Live tracking on map

Real-time ground track for satellite COSMOS 2080 (GLONASS).

In-orbit conjunctions

A list of the most updated potential collisions computed for object COSMOS 2080 (GLONASS).

Target Orbit TCA Probability of collision Miss distance Type
COSMOS 2177 (GLONASS) MEO 2025-11-16 06:08:20 TBA 4460.0 (m) PAYLOAD
COSMOS 2177 (GLONASS) MEO 2025-11-15 18:52:36 TBA 3946.0 (m) PAYLOAD
COSMOS 2177 (GLONASS) MEO 2025-11-15 07:36:52 TBA 3484.0 (m) PAYLOAD
COSMOS 2177 (GLONASS) MEO 2025-11-14 20:21:08 TBA 3111.0 (m) PAYLOAD
COSMOS 2177 (GLONASS) MEO 2025-11-14 09:05:24 TBA 2785.0 (m) PAYLOAD

Associated space launch

GLONASS navigation satellites

COSMOS 2080 (GLONASS) was lifted into orbit during the mission ‘Proton | Uragan 36 to 38’, on board a Proton space rocket.

The launch took place on May 19, 1990, 8:32 a.m. from 200/40.

For more information about the launch, click the button.

Launch to space Proton | Uragan 36 to 38
Proton | Uragan 36 to 38

Agency: N/A

Status: Launch Successful

Launch date: May 19, 1990, 8:32 a.m. UTC

Rocket: Proton

Launch pad: 200/40

Location: Baikonur Cosmodrome, Republic of Kazakhstan

...

Latest news about this satellite

There are no fresh news available about this satellite. Check back as we update our databases every day.


Newsletter sign-up

Weekly statistics, charts and insights to help you stay on top of the space industry.